Voltar ao catálogo

STARLINK-6031

AtivoComunicaçõesVLEO
NORAD 56810·PAYLOAD·🇺🇸 United States

Lançado May 31, 2023 de Vandenberg Space Force Base

Loading…

Próximas Passagens (próximas 24 horas)

TLE

AtualizadoSource: CelesTrak SupGP

Época: Sep 15, 2026, 03:01 UTC

1 56810C 23078AV  26258.12618056 -.00032362  00000+0 -27122-2 0  2583
2 56810  70.0012 226.7643 0003445 264.7290 224.9906 14.98343757    12

Acompanhe STARLINK-6031 em tempo real com AllMySat

Download on the App Store